Location: Banff
(51.1667°N, 115.5667°W)
Time: 15:22:05
(UTC+00:00)

Vanguard 1 - Pass Details

Date: 03 December 2020
Orbit: 649 x 3834 km, 34.3° (Epoch: 16 January)

Event Time Altitude Azimuth Distance (km) Brightness Sun altitude
Exits shadow 14:13:54 - 244° (WSW) 3,578 12.6 -10.9°
Rises 14:13:54 0° 244° (WSW) 3,576 12.6 -10.9°
Reaches altitude 10° 14:16:35 10° 230° (SW) 2,914 12.2 -10.5°
Maximum altitude 14:22:09 24° 178° (S) 2,630 12.5 -9.7°
Drops below altitude 10° 14:30:34 10° 131° (SE) 4,563 14.9 -8.5°
Sets 14:36:11 0° 121° (ESE) 6,184 16.7 -7.7°
